軌道要素
Epoch 2022 Jan. 21.0 TT = JDT 2459600.5
T 2023 May 9.07575 TT Rudenko
q 3.0737886 (2000.0) P Q
z +0.0000628 Peri. 213.97221 +0.06633556 -0.03755977
+/-0.0000014 Node 94.35872 -0.53617370 +0.84141517
e 0.9998071 Incl. 89.65988 -0.84149709 -0.53908235
From 1102 observations 2020 Apr. 17-2022 Jan. 28, mean residual 0".3.
|